Time,TemperatureF,DewpointF,PressureIn,WindDirection,WindDirectionDegrees,WindSpeedMPH,WindSpeedGustMPH,Humidity,HourlyPrecipIn,Conditions,Clouds,dailyrainin,SoftwareType,DateUTC
2013-08-15 00:00:00,69.9,69.0,30.04,NNE,16,2.0,2.0,97,0.00,,,0.04,Wunderground v.1.15,2013-08-15 04:00:00,
2013-08-15 00:05:00,70.0,69.1,30.04,North,349,2.0,2.0,97,0.00,,,0.00,Wunderground v.1.15,2013-08-15 04:05:00,
2013-08-15 00:15:00,70.0,69.1,30.04,North,349,1.0,2.0,97,0.00,,,0.00,Wunderground v.1.15,2013-08-15 04:15:00,
2013-08-15 00:20:00,70.0,69.1,30.04,North,349,0.0,2.0,97,0.00,,,0.00,Wunderground v.1.15,2013-08-15 04:20:00,
2013-08-15 00:25:00,69.9,69.0,30.05,SE,139,1.0,2.0,97,0.00,,,0.00,Wunderground v.1.15,2013-08-15 04:25:00,
2013-08-15 00:35:00,69.9,69.0,30.05,SE,139,0.0,1.0,97,0.00,,,0.00,Wunderground v.1.15,2013-08-15 04:35:00,
2013-08-15 00:45:00,70.0,69.1,30.05,SE,138,0.0,0.0,97,0.00,,,0.00,Wunderground v.1.15,2013-08-15 04:45:00,
2013-08-15 00:50:00,70.0,69.1,30.05,SE,138,0.0,0.0,97,0.00,,,0.00,Wunderground v.1.15,2013-08-15 04:50:00,
2013-08-15 00:55:00,70.0,69.1,30.05,SE,139,0.0,0.0,97,0.00,,,0.00,Wunderground v.1.15,2013-08-15 04:55:00,
2013-08-15 01:00:00,70.0,69.1,30.05,SE,139,0.0,0.0,97,0.00,,,0.00,Wunderground v.1.15,2013-08-15 05:00:00,
2013-08-15 01:05:00,70.0,69.1,30.05,SE,139,0.0,0.0,97,0.00,,,0.00,Wunderground v.1.15,2013-08-15 05:05:00,
2013-08-15 01:10:00,70.0,69.1,30.05,SE,139,0.0,0.0,97,0.00,,,0.00,Wunderground v.1.15,2013-08-15 05:10:00,
2013-08-15 01:20:00,69.9,69.0,30.05,SE,139,0.0,0.0,97,0.00,,,0.00,Wunderground v.1.15,2013-08-15 05:20:00,
2013-08-15 01:25:00,69.9,69.0,30.05,SE,138,0.0,0.0,97,0.00,,,0.00,Wunderground v.1.15,2013-08-15 05:25:00,
2013-08-15 01:35:00,69.8,68.9,30.05,SE,139,0.0,0.0,97,0.00,,,0.00,Wunderground v.1.15,2013-08-15 05:35:00,
2013-08-15 01:45:00,69.7,68.8,30.04,SE,136,0.0,0.0,97,0.00,,,0.00,Wunderground v.1.15,2013-08-15 05:45:00,
2013-08-15 01:50:00,69.7,68.8,30.04,East,101,0.0,0.0,97,0.00,,,0.00,Wunderground v.1.15,2013-08-15 05:50:00,
2013-08-15 01:55:00,69.7,68.8,30.04,East,101,0.0,0.0,97,0.00,,,0.00,Wunderground v.1.15,2013-08-15 05:55:00,
2013-08-15 02:05:00,69.7,68.8,30.04,East,101,1.0,2.0,97,0.00,,,0.00,Wunderground v.1.15,2013-08-15 06:05:00,
2013-08-15 02:15:00,69.7,68.8,30.03,ENE,74,0.0,0.0,97,0.00,,,0.00,Wunderground v.1.15,2013-08-15 06:15:00,
2013-08-15 02:20:00,69.7,68.8,30.03,ENE,72,1.0,2.0,97,0.00,,,0.00,Wunderground v.1.15,2013-08-15 06:20:00,
2013-08-15 02:25:00,69.7,68.8,30.03,ENE,73,1.0,2.0,97,0.00,,,0.01,Wunderground v.1.15,2013-08-15 06:25:00,
2013-08-15 02:35:00,69.7,69.1,30.03,ENE,61,0.0,2.0,98,0.00,,,0.01,Wunderground v.1.15,2013-08-15 06:35:00,
2013-08-15 02:40:00,69.8,69.2,30.03,NE,55,0.0,0.0,98,0.00,,,0.01,Wunderground v.1.15,2013-08-15 06:40:00,
2013-08-15 02:50:00,69.8,69.2,30.03,NNE,12,2.0,2.0,98,0.00,,,0.01,Wunderground v.1.15,2013-08-15 06:50:00,
2013-08-15 02:55:00,69.8,69.2,30.03,NNE,18,2.0,2.0,98,0.00,,,0.01,Wunderground v.1.15,2013-08-15 06:55:00,
2013-08-15 03:05:00,69.8,69.2,30.03,NNE,17,2.0,2.0,98,0.00,,,0.01,Wunderground v.1.15,2013-08-15 07:05:00,
2013-08-15 03:15:00,69.7,68.8,30.03,North,5,2.0,3.0,97,0.00,,,0.01,Wunderground v.1.15,2013-08-15 07:15:00,
2013-08-15 03:20:00,69.6,68.7,30.03,North,360,2.0,2.0,97,0.00,,,0.01,Wunderground v.1.15,2013-08-15 07:20:00,
2013-08-15 03:30:00,69.5,68.6,30.03,NNE,28,2.0,2.0,97,0.00,,,0.01,Wunderground v.1.15,2013-08-15 07:30:00,
2013-08-15 03:35:00,69.5,68.6,30.03,North,360,2.0,2.0,97,0.00,,,0.01,Wunderground v.1.15,2013-08-15 07:35:00,
2013-08-15 03:45:00,69.4,68.5,30.03,North,10,3.0,3.0,97,0.00,,,0.01,Wunderground v.1.15,2013-08-15 07:45:00,
2013-08-15 03:50:00,69.4,68.5,30.03,NE,44,2.0,2.0,97,0.00,,,0.01,Wunderground v.1.15,2013-08-15 07:50:00,
2013-08-15 04:00:00,69.4,68.5,30.03,North,360,2.0,2.0,97,0.00,,,0.01,Wunderground v.1.15,2013-08-15 08:00:00,
2013-08-15 04:05:00,69.3,68.4,30.03,NE,35,2.0,3.0,97,0.00,,,0.01,Wunderground v.1.15,2013-08-15 08:05:00,
2013-08-15 04:15:00,69.3,68.4,30.03,NNE,15,3.0,3.0,97,0.00,,,0.01,Wunderground v.1.15,2013-08-15 08:15:00,
2013-08-15 04:20:00,69.2,68.3,30.03,NNE,19,3.0,3.0,97,0.00,,,0.01,Wunderground v.1.15,2013-08-15 08:20:00,
2013-08-15 04:30:00,69.1,68.2,30.03,NNE,22,2.0,3.0,97,0.00,,,0.01,Wunderground v.1.15,2013-08-15 08:30:00,
2013-08-15 04:35:00,69.1,68.2,30.03,NE,36,2.0,3.0,97,0.00,,,0.01,Wunderground v.1.15,2013-08-15 08:35:00,
2013-08-15 04:45:00,69.0,67.8,30.03,NNE,28,2.0,3.0,96,0.00,,,0.01,Wunderground v.1.15,2013-08-15 08:45:00,
2013-08-15 04:50:00,68.9,67.7,30.03,NNE,12,2.0,2.0,96,0.00,,,0.01,Wunderground v.1.15,2013-08-15 08:50:00,
2013-08-15 05:00:00,68.8,67.6,30.03,NE,41,2.0,2.0,96,0.00,,,0.01,Wunderground v.1.15,2013-08-15 09:00:00,
2013-08-15 05:05:00,68.8,67.6,30.03,NNE,27,2.0,2.0,96,0.00,,,0.01,Wunderground v.1.15,2013-08-15 09:05:00,
2013-08-15 05:15:00,68.7,67.5,30.04,NNE,26,2.0,2.0,96,0.00,,,0.01,Wunderground v.1.15,2013-08-15 09:15:00,
2013-08-15 05:20:00,68.7,67.5,30.04,ENE,65,1.0,2.0,96,0.00,,,0.01,Wunderground v.1.15,2013-08-15 09:20:00,
2013-08-15 05:30:00,68.7,67.5,30.04,ENE,69,2.0,2.0,96,0.00,,,0.01,Wunderground v.1.15,2013-08-15 09:30:00,
2013-08-15 05:35:00,68.7,67.5,30.04,East,87,2.0,2.0,96,0.00,,,0.01,Wunderground v.1.15,2013-08-15 09:35:00,
2013-08-15 05:45:00,68.7,67.5,30.04,ENE,65,1.0,2.0,96,0.00,,,0.01,Wunderground v.1.15,2013-08-15 09:45:00,
2013-08-15 05:50:00,68.6,67.4,30.04,East,82,1.0,1.0,96,0.00,,,0.01,Wunderground v.1.15,2013-08-15 09:50:00,
2013-08-15 05:55:00,68.6,67.4,30.04,ESE,110,1.0,2.0,96,0.00,,,0.01,Wunderground v.1.15,2013-08-15 09:55:00,
2013-08-15 06:05:00,68.6,67.4,30.04,East,88,1.0,2.0,96,0.00,,,0.01,Wunderground v.1.15,2013-08-15 10:05:00,
2013-08-15 06:10:00,68.6,67.4,30.04,East,84,1.0,1.0,96,0.00,,,0.01,Wunderground v.1.15,2013-08-15 10:10:00,
2013-08-15 06:20:00,68.6,67.4,30.05,East,84,0.0,1.0,96,0.00,,,0.01,Wunderground v.1.15,2013-08-15 10:20:00,
2013-08-15 06:25:00,68.6,67.4,30.05,East,84,0.0,1.0,96,0.00,,,0.01,Wunderground v.1.15,2013-08-15 10:25:00,
2013-08-15 06:35:00,68.5,67.6,30.05,ENE,61,1.0,1.0,97,0.00,,,0.01,Wunderground v.1.15,2013-08-15 10:35:00,
2013-08-15 06:40:00,68.5,67.6,30.05,ENE,76,0.0,2.0,97,0.00,,,0.01,Wunderground v.1.15,2013-08-15 10:40:00,
2013-08-15 06:50:00,68.5,67.6,30.06,East,94,1.0,1.0,97,0.00,,,0.01,Wunderground v.1.15,2013-08-15 10:50:00,
2013-08-15 06:55:00,68.5,67.6,30.06,SE,130,1.0,2.0,97,0.00,,,0.01,Wunderground v.1.15,2013-08-15 10:55:00,
2013-08-15 07:00:00,68.5,67.6,30.06,ENE,61,1.0,1.0,97,0.00,,,0.01,Wunderground v.1.15,2013-08-15 11:00:00,
2013-08-15 07:10:00,68.4,67.5,30.06,NNE,14,2.0,2.0,97,0.00,,,0.01,Wunderground v.1.15,2013-08-15 11:10:00,
2013-08-15 07:15:00,68.4,67.5,30.07,NNE,24,1.0,2.0,97,0.00,,,0.01,Wunderground v.1.15,2013-08-15 11:15:00,
2013-08-15 07:25:00,68.4,67.5,30.07,ENE,62,1.0,3.0,97,0.00,,,0.01,Wunderground v.1.15,2013-08-15 11:25:00,
2013-08-15 07:35:00,68.3,67.1,30.07,ENE,61,2.0,2.0,96,0.00,,,0.01,Wunderground v.1.15,2013-08-15 11:35:00,
2013-08-15 07:40:00,68.2,67.0,30.07,NE,37,2.0,2.0,96,0.00,,,0.01,Wunderground v.1.15,2013-08-15 11:40:00,
2013-08-15 07:50:00,68.3,66.8,30.07,East,84,2.0,3.0,95,0.00,,,0.01,Wunderground v.1.15,2013-08-15 11:50:00,
2013-08-15 07:55:00,68.3,66.5,30.07,NE,44,2.0,3.0,94,0.00,,,0.01,Wunderground v.1.15,2013-08-15 11:55:00,
2013-08-15 08:05:00,68.2,66.4,30.07,East,91,2.0,3.0,94,0.00,,,0.01,Wunderground v.1.15,2013-08-15 12:05:00,
2013-08-15 08:15:00,68.3,66.5,30.08,NNE,30,2.0,2.0,94,0.00,,,0.01,Wunderground v.1.15,2013-08-15 12:15:00,
2013-08-15 08:25:00,68.2,66.4,30.08,ESE,120,1.0,2.0,94,0.00,,,0.01,Wunderground v.1.15,2013-08-15 12:25:00,
2013-08-15 08:30:00,68.2,66.1,30.08,ENE,69,2.0,3.0,93,0.00,,,0.01,Wunderground v.1.15,2013-08-15 12:30:00,
2013-08-15 08:35:00,68.2,66.1,30.08,East,81,2.0,3.0,93,0.00,,,0.01,Wunderground v.1.15,2013-08-15 12:35:00,
2013-08-15 08:45:00,68.3,65.9,30.09,ESE,105,2.0,4.0,92,0.00,,,0.01,Wunderground v.1.15,2013-08-15 12:45:00,
2013-08-15 08:55:00,68.2,65.2,30.09,ENE,76,3.0,3.0,90,0.00,,,0.01,Wunderground v.1.15,2013-08-15 12:55:00,
2013-08-15 09:05:00,67.7,63.4,30.09,ENE,63,3.0,5.0,86,0.00,,,0.01,Wunderground v.1.15,2013-08-15 13:05:00,
2013-08-15 09:10:00,67.6,63.3,30.09,NE,49,3.0,3.0,86,0.00,,,0.01,Wunderground v.1.15,2013-08-15 13:10:00,
2013-08-15 09:15:00,67.4,62.7,30.09,ENE,78,3.0,5.0,85,0.00,,,0.01,Wunderground v.1.15,2013-08-15 13:15:00,
2013-08-15 09:20:00,67.4,62.4,30.10,ENE,69,3.0,3.0,84,0.00,,,0.01,Wunderground v.1.15,2013-08-15 13:20:00,
2013-08-15 09:30:00,67.3,62.3,30.10,ENE,64,2.0,2.0,84,0.00,,,0.01,Wunderground v.1.15,2013-08-15 13:30:00,
2013-08-15 09:35:00,67.3,62.3,30.10,NE,38,2.0,4.0,84,0.00,,,0.01,Wunderground v.1.15,2013-08-15 13:35:00,
2013-08-15 09:45:00,67.3,62.3,30.10,ENE,71,2.0,6.0,84,0.00,,,0.01,Wunderground v.1.15,2013-08-15 13:45:00,
2013-08-15 09:55:00,67.2,62.5,30.10,ENE,76,2.0,2.0,85,0.00,,,0.01,Wunderground v.1.15,2013-08-15 13:55:00,
2013-08-15 10:00:00,67.2,62.2,30.11,East,84,1.0,1.0,84,0.00,,,0.01,Wunderground v.1.15,2013-08-15 14:00:00,
2013-08-15 10:05:00,67.1,62.4,30.11,ENE,67,1.0,2.0,85,0.00,,,0.01,Wunderground v.1.15,2013-08-15 14:05:00,
2013-08-15 10:15:00,66.9,62.2,30.11,ENE,63,2.0,3.0,85,0.00,,,0.01,Wunderground v.1.15,2013-08-15 14:15:00,
2013-08-15 10:20:00,66.8,62.5,30.11,ENE,74,3.0,3.0,86,0.00,,,0.01,Wunderground v.1.15,2013-08-15 14:20:00,
2013-08-15 10:30:00,66.6,62.9,30.11,NE,48,1.0,1.0,88,0.00,,,0.01,Wunderground v.1.15,2013-08-15 14:30:00,
2013-08-15 10:40:00,66.3,63.3,30.12,ENE,57,0.0,0.0,90,0.00,,,0.01,Wunderground v.1.15,2013-08-15 14:40:00,
2013-08-15 10:50:00,66.0,63.6,30.12,NE,51,1.0,2.0,92,0.00,,,0.02,Wunderground v.1.15,2013-08-15 14:50:00,
2013-08-15 11:00:00,65.6,63.5,30.12,ENE,67,1.0,3.0,93,0.04,,,0.03,Wunderground v.1.15,2013-08-15 15:00:00,
2013-08-15 11:05:00,65.4,63.6,30.13,ESE,111,2.0,3.0,94,0.08,,,0.04,Wunderground v.1.15,2013-08-15 15:05:00,
2013-08-15 11:10:00,65.2,63.4,30.13,ENE,72,2.0,2.0,94,0.14,,,0.05,Wunderground v.1.15,2013-08-15 15:10:00,
2013-08-15 11:20:00,64.8,63.3,30.12,NE,53,3.0,4.0,95,0.14,,,0.09,Wunderground v.1.15,2013-08-15 15:20:00,
2013-08-15 11:30:00,64.4,62.6,30.11,ESE,103,6.0,6.0,94,0.11,,,0.10,Wunderground v.1.15,2013-08-15 15:30:00,
2013-08-15 11:35:00,64.3,62.5,30.12,SE,126,6.0,6.0,94,0.06,,,0.10,Wunderground v.1.15,2013-08-15 15:35:00,
2013-08-15 11:45:00,64.5,63.0,30.13,ESE,110,3.0,4.0,95,0.00,,,0.10,Wunderground v.1.15,2013-08-15 15:45:00,
2013-08-15 11:55:00,64.3,62.5,30.13,ENE,58,4.0,4.0,94,0.00,,,0.11,Wunderground v.1.15,2013-08-15 15:55:00,
2013-08-15 12:05:00,64.4,62.9,30.13,East,82,3.0,3.0,95,0.00,,,0.11,Wunderground v.1.15,2013-08-15 16:05:00,
2013-08-15 12:10:00,64.5,63.3,30.13,ENE,63,2.0,2.0,96,0.00,,,0.12,Wunderground v.1.15,2013-08-15 16:10:00,
2013-08-15 12:20:00,64.6,63.4,30.13,ENE,63,1.0,2.0,96,0.05,,,0.13,Wunderground v.1.15,2013-08-15 16:20:00,
2013-08-15 12:25:00,64.6,63.4,30.12,ENE,78,1.0,2.0,96,0.05,,,0.13,Wunderground v.1.15,2013-08-15 16:25:00,
2013-08-15 12:30:00,64.5,63.6,30.11,ENE,63,2.0,2.0,97,0.38,,,0.16,Wunderground v.1.15,2013-08-15 16:30:00,
2013-08-15 12:35:00,64.6,63.7,30.11,NNE,19,2.0,2.0,97,0.26,,,0.18,Wunderground v.1.15,2013-08-15 16:35:00,
2013-08-15 12:45:00,64.7,63.8,30.11,ENE,64,2.0,4.0,97,0.15,,,0.20,Wunderground v.1.15,2013-08-15 16:45:00,
2013-08-15 12:55:00,64.7,63.8,30.12,East,87,2.0,2.0,97,0.24,,,0.24,Wunderground v.1.15,2013-08-15 16:55:00,
2013-08-15 13:00:00,64.8,63.9,30.12,ESE,105,2.0,2.0,97,0.14,,,0.25,Wunderground v.1.15,2013-08-15 17:00:00,
2013-08-15 13:05:00,64.8,63.9,30.12,North,355,1.0,3.0,97,0.18,,,0.26,Wunderground v.1.15,2013-08-15 17:05:00,
2013-08-15 13:15:00,64.5,63.6,30.12,ENE,57,3.0,4.0,97,0.11,,,0.28,Wunderground v.1.15,2013-08-15 17:15:00,
2013-08-15 13:25:00,64.6,63.7,30.12,East,97,3.0,3.0,97,0.06,,,0.28,Wunderground v.1.15,2013-08-15 17:25:00,
2013-08-15 13:30:00,64.7,63.8,30.13,NE,47,2.0,2.0,97,0.04,,,0.29,Wunderground v.1.15,2013-08-15 17:30:00,
2013-08-15 13:35:00,65.1,64.2,30.12,ENE,63,2.0,2.0,97,0.04,,,0.29,Wunderground v.1.15,2013-08-15 17:35:00,
2013-08-15 13:40:00,65.4,64.5,30.12,ENE,63,2.0,4.0,97,0.06,,,0.30,Wunderground v.1.15,2013-08-15 17:40:00,
2013-08-15 13:50:00,65.6,64.7,30.11,East,96,4.0,4.0,97,0.05,,,0.30,Wunderground v.1.15,2013-08-15 17:50:00,
2013-08-15 14:00:00,65.8,64.9,30.09,NNE,21,4.0,4.0,97,0.00,,,0.30,Wunderground v.1.15,2013-08-15 18:00:00,
2013-08-15 14:10:00,66.0,65.1,30.10,East,88,4.0,4.0,97,0.00,,,0.30,Wunderground v.1.15,2013-08-15 18:10:00,
2013-08-15 14:15:00,66.1,65.2,30.11,NE,37,3.0,4.0,97,0.00,,,0.30,Wunderground v.1.15,2013-08-15 18:15:00,
2013-08-15 14:25:00,65.9,64.7,30.10,ENE,72,3.0,4.0,96,0.00,,,0.30,Wunderground v.1.15,2013-08-15 18:25:00,
2013-08-15 14:35:00,66.2,65.0,30.09,North,9,4.0,6.0,96,0.00,,,0.30,Wunderground v.1.15,2013-08-15 18:35:00,
2013-08-15 14:40:00,66.4,65.2,30.09,NE,34,4.0,4.0,96,0.00,,,0.30,Wunderground v.1.15,2013-08-15 18:40:00,
2013-08-15 14:50:00,66.8,65.3,30.09,NNE,17,4.0,5.0,95,0.00,,,0.30,Wunderground v.1.15,2013-08-15 18:50:00,
2013-08-15 15:00:00,66.7,64.9,30.08,NE,44,5.0,5.0,94,0.00,,,0.30,Wunderground v.1.15,2013-08-15 19:00:00,
2013-08-15 15:05:00,67.2,65.4,30.08,North,360,4.0,10.0,94,0.00,,,0.30,Wunderground v.1.15,2013-08-15 19:05:00,
2013-08-15 15:15:00,68.0,65.6,30.08,ENE,57,5.0,11.0,92,0.00,,,0.30,Wunderground v.1.15,2013-08-15 19:15:00,
2013-08-15 15:25:00,68.6,66.2,30.08,ENE,69,4.0,5.0,92,0.00,,,0.30,Wunderground v.1.15,2013-08-15 19:25:00,
2013-08-15 15:30:00,68.4,65.4,30.08,East,92,4.0,4.0,90,0.00,,,0.30,Wunderground v.1.15,2013-08-15 19:30:00,
2013-08-15 15:40:00,67.8,64.8,30.09,NE,44,5.0,5.0,90,0.00,,,0.30,Wunderground v.1.15,2013-08-15 19:40:00,
2013-08-15 15:50:00,67.8,65.4,30.09,NE,53,3.0,3.0,92,0.00,,,0.30,Wunderground v.1.15,2013-08-15 19:50:00,
2013-08-15 16:00:00,68.1,65.1,30.09,ENE,66,4.0,5.0,90,0.00,,,0.30,Wunderground v.1.15,2013-08-15 20:00:00,
2013-08-15 16:05:00,68.3,65.6,30.08,NE,53,4.0,5.0,91,0.00,,,0.30,Wunderground v.1.15,2013-08-15 20:05:00,
2013-08-15 16:20:00,68.5,65.1,30.09,ENE,60,3.0,4.0,89,0.00,,,0.30,Wunderground v.1.15,2013-08-15 20:20:00,
2013-08-15 16:30:00,68.5,65.1,30.09,ENE,71,4.0,4.0,89,0.00,,,0.30,Wunderground v.1.15,2013-08-15 20:30:00,
2013-08-15 16:35:00,68.7,65.3,30.09,East,87,4.0,4.0,89,0.00,,,0.30,Wunderground v.1.15,2013-08-15 20:35:00,
2013-08-15 16:45:00,68.9,65.2,30.09,East,88,4.0,5.0,88,0.00,,,0.30,Wunderground v.1.15,2013-08-15 20:45:00,
2013-08-15 16:55:00,69.1,65.4,30.09,East,97,3.0,6.0,88,0.00,,,0.30,Wunderground v.1.15,2013-08-15 20:55:00,
2013-08-15 17:05:00,69.1,65.7,30.09,East,92,3.0,5.0,89,0.00,,,0.30,Wunderground v.1.15,2013-08-15 21:05:00,
2013-08-15 17:10:00,69.2,65.8,30.09,ENE,67,3.0,3.0,89,0.00,,,0.30,Wunderground v.1.15,2013-08-15 21:10:00,
2013-08-15 17:20:00,69.3,65.9,30.09,East,95,4.0,5.0,89,0.00,,,0.30,Wunderground v.1.15,2013-08-15 21:20:00,
2013-08-15 17:35:00,69.3,65.6,30.09,ENE,77,3.0,3.0,88,0.00,,,0.30,Wunderground v.1.15,2013-08-15 21:35:00,
2013-08-15 17:40:00,69.5,65.8,30.08,ESE,113,3.0,3.0,88,0.00,,,0.30,Wunderground v.1.15,2013-08-15 21:40:00,
2013-08-15 17:50:00,70.1,66.0,30.08,ESE,117,3.0,3.0,87,0.00,,,0.30,Wunderground v.1.15,2013-08-15 21:50:00,
2013-08-15 18:00:00,70.0,65.6,30.09,ENE,73,4.0,4.0,86,0.00,,,0.30,Wunderground v.1.15,2013-08-15 22:00:00,
2013-08-15 18:10:00,69.7,65.3,30.09,NNE,14,3.0,3.0,86,0.00,,,0.30,Wunderground v.1.15,2013-08-15 22:10:00,
2013-08-15 18:15:00,69.7,65.7,30.09,NE,46,3.0,3.0,87,0.00,,,0.30,Wunderground v.1.15,2013-08-15 22:15:00,
2013-08-15 18:20:00,69.6,65.6,30.09,East,92,3.0,3.0,87,0.00,,,0.30,Wunderground v.1.15,2013-08-15 22:20:00,
2013-08-15 18:30:00,69.4,65.0,30.09,NNE,29,2.0,2.0,86,0.00,,,0.30,Wunderground v.1.15,2013-08-15 22:30:00,
2013-08-15 18:35:00,69.3,64.9,30.09,ENE,57,1.0,5.0,86,0.00,,,0.30,Wunderground v.1.15,2013-08-15 22:35:00,
2013-08-15 18:45:00,69.1,65.1,30.09,ENE,68,2.0,3.0,87,0.00,,,0.30,Wunderground v.1.15,2013-08-15 22:45:00,
2013-08-15 18:50:00,69.1,65.4,30.09,East,94,1.0,2.0,88,0.00,,,0.30,Wunderground v.1.15,2013-08-15 22:50:00,
2013-08-15 19:00:00,69.0,65.0,30.09,NE,55,2.0,2.0,87,0.00,,,0.30,Wunderground v.1.15,2013-08-15 23:00:00,
2013-08-15 19:10:00,68.9,65.2,30.09,WNW,299,1.0,1.0,88,0.00,,,0.31,Wunderground v.1.15,2013-08-15 23:10:00,
2013-08-15 19:20:00,68.6,64.9,30.09,ENE,71,1.0,1.0,88,0.00,,,0.31,Wunderground v.1.15,2013-08-15 23:20:00,
2013-08-15 19:25:00,68.5,64.8,30.09,East,82,1.0,1.0,88,0.00,,,0.31,Wunderground v.1.15,2013-08-15 23:25:00,
2013-08-15 19:30:00,68.5,65.1,30.09,ESE,109,1.0,1.0,89,0.00,,,0.31,Wunderground v.1.15,2013-08-15 23:30:00,
2013-08-15 19:35:00,68.4,65.0,30.09,ESE,107,1.0,2.0,89,0.00,,,0.31,Wunderground v.1.15,2013-08-15 23:35:00,
2013-08-15 19:45:00,68.1,65.1,30.09,East,79,1.0,2.0,90,0.00,,,0.31,Wunderground v.1.15,2013-08-15 23:45:00,
2013-08-15 19:50:00,68.1,65.1,30.10,ENE,75,1.0,1.0,90,0.00,,,0.31,Wunderground v.1.15,2013-08-15 23:50:00,
2013-08-15 20:00:00,67.9,65.2,30.10,ENE,75,0.0,1.0,91,0.00,,,0.31,Wunderground v.1.15,2013-08-16 00:00:00,
2013-08-15 20:10:00,67.8,65.1,30.10,ENE,74,1.0,1.0,91,0.00,,,0.31,Wunderground v.1.15,2013-08-16 00:10:00,
2013-08-15 20:15:00,67.7,65.3,30.10,ENE,74,1.0,2.0,92,0.00,,,0.31,Wunderground v.1.15,2013-08-16 00:15:00,
2013-08-15 20:20:00,67.5,65.1,30.10,NNE,32,1.0,1.0,92,0.00,,,0.31,Wunderground v.1.15,2013-08-16 00:20:00,
2013-08-15 20:30:00,67.2,65.1,30.10,NNE,29,2.0,2.0,93,0.00,,,0.31,Wunderground v.1.15,2013-08-16 00:30:00,
2013-08-15 20:40:00,67.2,65.1,30.10,NNE,29,1.0,1.0,93,0.00,,,0.31,Wunderground v.1.15,2013-08-16 00:40:00,
2013-08-15 20:50:00,67.1,65.0,30.10,NNE,29,0.0,0.0,93,0.00,,,0.31,Wunderground v.1.15,2013-08-16 00:50:00,
2013-08-15 20:55:00,67.1,65.3,30.10,NE,47,0.0,1.0,94,0.00,,,0.31,Wunderground v.1.15,2013-08-16 00:55:00,
2013-08-15 21:05:00,67.0,65.2,30.10,ENE,65,1.0,2.0,94,0.00,,,0.31,Wunderground v.1.15,2013-08-16 01:05:00,
2013-08-15 21:10:00,67.0,65.2,30.10,ENE,65,1.0,1.0,94,0.00,,,0.31,Wunderground v.1.15,2013-08-16 01:10:00,
2013-08-15 21:20:00,67.0,65.2,30.10,ENE,64,0.0,1.0,94,0.00,,,0.31,Wunderground v.1.15,2013-08-16 01:20:00,
2013-08-15 21:30:00,67.0,65.5,30.11,ENE,64,0.0,0.0,95,0.00,,,0.31,Wunderground v.1.15,2013-08-16 01:30:00,
2013-08-15 21:40:00,66.9,65.1,30.11,ENE,76,1.0,1.0,94,0.00,,,0.31,Wunderground v.1.15,2013-08-16 01:40:00,
2013-08-15 21:50:00,66.9,65.1,30.11,ENE,57,1.0,2.0,94,0.00,,,0.31,Wunderground v.1.15,2013-08-16 01:50:00,
2013-08-15 22:00:00,66.9,65.1,30.11,ENE,57,1.0,1.0,94,0.00,,,0.31,Wunderground v.1.15,2013-08-16 02:00:00,
2013-08-15 22:05:00,66.9,65.1,30.12,ENE,59,1.0,1.0,94,0.00,,,0.31,Wunderground v.1.15,2013-08-16 02:05:00,
2013-08-15 22:15:00,67.0,65.2,30.12,ENE,59,1.0,1.0,94,0.00,,,0.31,Wunderground v.1.15,2013-08-16 02:15:00,
2013-08-15 22:25:00,66.9,65.1,30.12,ENE,64,0.0,1.0,94,0.00,,,0.31,Wunderground v.1.15,2013-08-16 02:25:00,
2013-08-15 22:30:00,66.8,65.3,30.12,ENE,64,1.0,1.0,95,0.00,,,0.31,Wunderground v.1.15,2013-08-16 02:30:00,
2013-08-15 22:40:00,66.8,65.3,30.12,ENE,64,0.0,0.0,95,0.00,,,0.31,Wunderground v.1.15,2013-08-16 02:40:00,
2013-08-15 22:50:00,66.8,65.3,30.11,ENE,64,0.0,0.0,95,0.00,,,0.31,Wunderground v.1.15,2013-08-16 02:50:00,
2013-08-15 22:55:00,66.8,65.3,30.11,ENE,67,1.0,2.0,95,0.00,,,0.31,Wunderground v.1.15,2013-08-16 02:55:00,
2013-08-15 23:05:00,66.7,65.2,30.11,East,98,1.0,1.0,95,0.00,,,0.31,Wunderground v.1.15,2013-08-16 03:05:00,
2013-08-15 23:10:00,66.7,65.2,30.11,East,92,0.0,0.0,95,0.00,,,0.31,Wunderground v.1.15,2013-08-16 03:10:00,
2013-08-15 23:20:00,66.7,65.2,30.11,East,90,0.0,0.0,95,0.00,,,0.31,Wunderground v.1.15,2013-08-16 03:20:00,
2013-08-15 23:25:00,66.7,65.2,30.11,East,90,0.0,0.0,95,0.00,,,0.31,Wunderground v.1.15,2013-08-16 03:25:00,
2013-08-15 23:35:00,66.7,65.2,30.11,East,90,1.0,1.0,95,0.00,,,0.31,Wunderground v.1.15,2013-08-16 03:35:00,
2013-08-15 23:40:00,66.7,65.2,30.11,East,90,0.0,1.0,95,0.00,,,0.31,Wunderground v.1.15,2013-08-16 03:40:00,
2013-08-15 23:50:00,66.7,65.2,30.11,East,90,0.0,0.0,95,0.00,,,0.31,Wunderground v.1.15,2013-08-16 03:50:00,